Погода в Бартеневке

Россия / Саратовская область     52°25′29″N   49°04′59″E
темп.,
°C
ветер,
м/с
пор.,
м/с
влажн.,
%
обл.,
%
осадки,
мм/ч
давл.,
гПа
погр.,
м
15 мая, сб
сб1501:00+19ююв515465 0.0 1020234
04:00+17ю4114738 0.0 1020162
07:00+18ююв49505 0.0 1020174
10:00+25ююв69335 0.0 1021454
13:00+30ю79215 0.0 10201466
16:00+30ю79225 0.0 10192398
19:00+26ююв48395 0.0 1019175
22:00+21ююв49442 0.0 1019117
16 мая, вс
вс1601:00+19ююв4124716 0.0 1018167
04:00+18ююв410520 0.0 1018140
07:00+20ююв48545 0.0 1019185
10:00+26ю57351 0.0 1019536
13:00+30ю611247 0.0 10182915
16:00+31ююз682019 0.0 10173641
19:00+27ю3440100 0.0 101754
22:00+23ююв4742100 0.0 101794
17 мая, пн
пн1701:00+21ююв474546 0.0 101889
04:00+20ююв4124989 0.0 1018203
07:00+21ююв395555 0.0 1019230
10:00+27ююв563681 0.0 1019460
13:00+31ююв5724100 0.0 10182599
16:00+31ююв6722100 0.0 10183469
19:00+27ююв353752 0.0 101779
22:00+22ююв334198 0.0 101823
18 мая, вт
вт1801:00+21юв334041 0.0 101834
04:00+19вюв474456 0.0 101779
07:00+20юв41047100 0.0 1017195
10:00+26юв61033100 0.0 1016531
13:00+30ююв6724100 0.0 10161301
16:00+32ююв671822 0.0 10153777
19:00+28юв35345 0.0 101479
22:00+23юв443733 0.0 101439
19 мая, ср
ср1901:00+21вюв410395 0.0 1014133
04:00+19юв513395 0.0 1014183
07:00+22вюв614437 0.0 1013285
10:00+27юв811340 0.0 1012688
13:00+31ююв812274 0.0 10112699
16:00+32ююв8102447 0.0 10104306
19:00+26ю71147100 0.1 1011480
22:00+19зюз466045 0.8 101292